Weather History for Andrews AFB, MD

Change the Weather History Date:

Thursday, November 28, 2013

  Actual Average Record
Temperature  
Mean Temperature 32 °F -  
Max Temperature 37 °F 52 °F 71 °F (2011)
Min Temperature 26 °F 32 °F 19 °F (1996)
Degree Days  
Heating Degree Days 34    
Moisture  
Dew Point 14 °F    
Average Humidity 51    
Maximum Humidity 78    
Minimum Humidity 36    
Precipitation  
Precipitation 0.00 in - - ()
Sea Level Pressure  
Sea Level Pressure 30.37 in    
Wind  
Wind Speed 12 mph (WNW)    
Max Wind Speed 21 mph    
Max Gust Speed 26 mph    
Visibility 10 miles    
Events      
Averages and records for this station are not official NWS values.
T = Trace of Precipitation, MM = Missing Value Source: NWS Daily Summary

Daily Weather History Graph

Daily Weather History Graph

Search for Another Location

Airport:

Trip Planner

Search our weather history database for the weather conditions in past years. The results will help you decide how hot, cold, wet, or windy it might be!

Date:

Astronomy

Nov. 28, 2013 Rise Set
Actual Time 7:04 AM EST 4:46 PM EST
Civil Twilight 6:34 AM EST 5:16 PM EST
Nautical Twilight 6:01 AM EST 5:48 PM EST
Astronomical Twilight 5:29 AM EST 6:20 PM EST
Moon 2:07 AM EST (11/28) 1:52 PM EST (11/28)
Length of Visible Light 10h 41m
Length of Day
9h 42m
Waning Crescent, 22% of the Moon is Illuminated
Nov 28
Waning Crescent
Dec 2
New
Dec 9
First Quarter
Dec 17
Full
Dec 25
Last Quarter

Hourly Weather History & Observations

Time (EST) Temp. Windchill Dew Point Humidity Pressure Visibility Wind Dir Wind Speed Gust Speed Precip Events Conditions
12:58 AM 28.9 °F 15.8 °F 12.2 °F 50% 30.10 in 10.0 mi WNW 20.7 mph - N/A   Clear
1:59 AM 28.9 °F 17.7 °F 12.0 °F 49% 30.14 in 10.0 mi WNW 15.0 mph 23.0 mph N/A   Scattered Clouds
2:58 AM 28.9 °F 17.3 °F 11.7 °F 49% 30.17 in 10.0 mi WNW 16.1 mph 26.5 mph N/A   Partly Cloudy
3:58 AM 28.6 °F 16.4 °F 11.7 °F 49% 30.21 in 10.0 mi WNW 17.3 mph 23.0 mph N/A   Clear
4:58 AM 28.4 °F 18.0 °F 11.1 °F 48% 30.25 in 10.0 mi WNW 12.7 mph 23.0 mph N/A   Clear
5:58 AM 27.7 °F 16.6 °F 10.9 °F 50% 30.28 in 10.0 mi WNW 13.8 mph - N/A   Clear
6:58 AM 27.7 °F 18.2 °F 10.8 °F 49% 30.32 in 10.0 mi WNW 10.4 mph - N/A   Clear
8:58 AM 30.4 °F 21.5 °F 12.6 °F 48% 30.39 in 10.0 mi WNW 10.4 mph - N/A   Clear
9:58 AM 32.0 °F 20.8 °F 12.2 °F 44% 30.41 in 10.0 mi NW 17.3 mph 24.2 mph N/A   Clear
10:58 AM 33.4 °F 22.7 °F 11.1 °F 40% 30.41 in 10.0 mi NW 17.3 mph - N/A   Clear
11:58 AM 35.1 °F 26.9 °F 12.0 °F 39% 30.40 in 10.0 mi WNW 11.5 mph 21.9 mph N/A   Clear
12:58 PM 35.8 °F 26.9 °F 11.7 °F 37% 30.39 in 10.0 mi NW 13.8 mph 19.6 mph N/A   Clear
1:19 PM 35.6 °F 27.1 °F 12.2 °F 38% 30.36 in 10.0 mi NNW 12.7 mph - N/A   Clear
1:58 PM 36.9 °F 29.1 °F 12.2 °F 36% 30.39 in 10.0 mi West 11.5 mph - N/A   Clear
2:58 PM 37.0 °F 31.6 °F 13.3 °F 38% 30.40 in 10.0 mi West 6.9 mph - N/A   Clear
3:58 PM 36.5 °F 32.7 °F 13.6 °F 39% 30.41 in 10.0 mi WSW 4.6 mph - N/A   Clear
4:58 PM 34.3 °F 31.4 °F 14.4 °F 44% 30.43 in 10.0 mi WSW 3.5 mph - N/A   Clear
5:58 PM 29.3 °F - 18.3 °F 64% 30.45 in 10.0 mi South 2.3 mph - N/A   Clear
6:58 PM 28.9 °F - 17.1 °F 61% 30.46 in 10.0 mi Calm Calm - N/A   Clear
7:58 PM 27.9 °F - 20.1 °F 73% 30.48 in 10.0 mi Calm Calm - N/A   Clear
8:59 PM 26.8 °F - 18.7 °F 72% 30.49 in 10.0 mi Calm Calm - N/A   Scattered Clouds
9:58 PM 27.5 °F - 21.6 °F 78% 30.49 in 10.0 mi East 1.2 mph - N/A   Overcast
10:58 PM 29.7 °F - 22.8 °F 76% 30.51 in 10.0 mi Calm Calm - N/A   Mostly Cloudy
11:58 PM 30.2 °F - 18.9 °F 63% 30.50 in 10.0 mi SSE 2.3 mph - N/A   Overcast